TimeSAST,TemperatureF,Dew PointF,Humidity,Sea Level PressureIn,VisibilityMPH,Wind Direction,Wind SpeedMPH,Gust SpeedMPH,PrecipitationIn,Events,Conditions,WindDirDegrees,DateUTC
12:00 AM,51.8,48.2,88,30.36,-9999.0,Variable,2.3,-,N/A,,Clear,0,2012-11-26 22:00:00
1:00 AM,53.6,50.0,88,30.33,6.2,Variable,2.3,-,N/A,,Mostly Cloudy,0,2012-11-26 23:00:00
2:00 AM,55,52,84,30.34,12,NNW,2.3,,,,,330,2012-11-27 00:00:00
2:00 AM,55.4,51.8,88,30.33,6.2,Variable,1.2,-,N/A,,Overcast,0,2012-11-27 00:00:00
3:00 AM,55.4,51.8,88,30.30,6.2,East,3.5,-,N/A,,Overcast,80,2012-11-27 01:00:00
4:00 AM,55.4,51.8,88,30.30,6.2,SE,5.8,-,N/A,,Scattered Clouds,140,2012-11-27 02:00:00
5:00 AM,54,51,84,30.32,12,East,8.1,,,,Partly Cloudy,90,2012-11-27 03:00:00
5:00 AM,53.6,50.0,88,30.30,6.2,East,8.1,-,N/A,,Scattered Clouds,90,2012-11-27 03:00:00
6:00 AM,57.2,51.8,82,30.30,6.2,East,6.9,-,N/A,,Mostly Cloudy,90,2012-11-27 04:00:00
7:00 AM,60.8,51.8,72,30.30,6.2,East,8.1,-,N/A,,Partly Cloudy,90,2012-11-27 05:00:00
8:00 AM,63,53,61,30.32,12,ESE,13.8,,,,Scattered Clouds,110,2012-11-27 06:00:00
8:00 AM,62.6,53.6,72,30.30,6.2,ESE,13.8,-,N/A,,Partly Cloudy,110,2012-11-27 06:00:00
9:00 AM,66.2,55.4,68,30.30,6.2,ESE,12.7,-,N/A,,Partly Cloudy,110,2012-11-27 07:00:00
10:00 AM,66.2,53.6,64,30.27,6.2,ESE,13.8,-,N/A,,Partly Cloudy,110,2012-11-27 08:00:00
11:00 AM,67,54,54,30.29,12,SE,18.4,,,,Scattered Clouds,130,2012-11-27 09:00:00
11:00 AM,66.2,53.6,64,30.27,6.2,ESE,13.8,-,N/A,,Partly Cloudy,110,2012-11-27 09:00:00
12:00 PM,68.0,53.6,60,30.24,6.2,ESE,13.8,-,N/A,,Partly Cloudy,110,2012-11-27 10:00:00
1:00 PM,69.8,55.4,60,30.21,6.2,ESE,17.3,-,N/A,,Partly Cloudy,110,2012-11-27 11:00:00
2:00 PM,70,53,45,30.22,12,East,15.0,,,,,100,2012-11-27 12:00:00
2:00 PM,69.8,53.6,56,30.21,-9999.0,East,15.0,-,N/A,,Clear,100,2012-11-27 12:00:00
3:00 PM,69.8,51.8,53,30.18,-9999.0,ESE,18.4,-,N/A,,Clear,120,2012-11-27 13:00:00
4:00 PM,68.0,55.4,64,30.18,-9999.0,ESE,16.1,-,N/A,,Clear,110,2012-11-27 14:00:00
5:00 PM,66.2,55.4,68,30.12,-9999.0,ESE,17.3,-,N/A,,Clear,110,2012-11-27 15:00:00
6:00 PM,66.2,55.4,68,30.12,-9999.0,ESE,13.8,-,N/A,,Clear,110,2012-11-27 16:00:00
7:00 PM,62.6,57.2,82,30.15,-9999.0,ESE,11.5,-,N/A,,Clear,110,2012-11-27 17:00:00
8:00 PM,61,56,80,30.16,12,East,9.2,,,,,100,2012-11-27 18:00:00
8:00 PM,60.8,57.2,88,30.15,-9999.0,East,9.2,-,N/A,,Clear,100,2012-11-27 18:00:00
9:00 PM,60.8,57.2,88,30.15,-9999.0,East,5.8,-,N/A,,Clear,90,2012-11-27 19:00:00
10:00 PM,59.0,55.4,88,30.15,5.6,East,4.6,-,N/A,,Unknown,90,2012-11-27 20:00:00
11:00 PM,59.0,55.4,88,30.15,5.0,ENE,4.6,-,N/A,,Unknown,60,2012-11-27 21:00:00